Location: Julian California
(33.0790°N, 116.6010°W)
Time: 20:41:55
(UTC-08:00)

Terra - Pass Details

Date: 19 May 2017
Orbit: 702 x 703 km, 98.2° (Epoch: 20 November)

Event Time Altitude Azimuth Distance (km) Brightness Sun altitude
Exits shadow 23:21:36 31° 313° (NW) 1,227 3.4 -33.4°
Drops below altitude 10° 23:24:20 10° 334° (NNW) 2,169 5.2 -33.7°
Sets 23:26:41 0° 341° (NNW) 3,092 6.2 -33.9°
